TimeEDT,TemperatureF,Dew PointF,Humidity,Sea Level PressureIn,VisibilityMPH,Wind Direction,Wind SpeedMPH,Gust SpeedMPH,PrecipitationIn,Events,Conditions,WindDirDegrees,DateUTC
12:53 AM,66.0,64.0,93,30.05,9.0,WSW,3.5,-,N/A,,Clear,240,2013-10-02 04:53:00
1:53 AM,64.9,63.0,93,30.05,6.0,SW,4.6,-,N/A,,Clear,220,2013-10-02 05:53:00
2:29 AM,66.2,64.4,94,30.07,6.0,SW,5.8,-,N/A,,Mostly Cloudy,220,2013-10-02 06:29:00
2:53 AM,68.0,66.0,93,30.06,7.0,SW,5.8,-,N/A,,Overcast,220,2013-10-02 06:53:00
3:15 AM,68.0,66.2,94,30.07,6.0,WSW,4.6,-,N/A,,Overcast,240,2013-10-02 07:15:00
3:53 AM,68.0,66.0,93,30.05,5.0,SW,4.6,-,N/A,,Overcast,230,2013-10-02 07:53:00
4:23 AM,66.2,66.2,100,30.07,5.0,WSW,3.5,-,N/A,,Mostly Cloudy,240,2013-10-02 08:23:00
4:32 AM,66.2,66.2,100,30.06,5.0,WSW,4.6,-,N/A,,Overcast,250,2013-10-02 08:32:00
4:46 AM,66.2,66.2,100,30.07,3.0,WSW,4.6,-,N/A,,Overcast,240,2013-10-02 08:46:00
4:53 AM,68.0,66.9,96,30.05,3.0,WSW,3.5,-,N/A,,Overcast,240,2013-10-02 08:53:00
5:53 AM,68.0,66.9,96,30.06,2.5,WSW,5.8,-,N/A,,Overcast,240,2013-10-02 09:53:00
6:53 AM,66.9,66.9,100,30.07,2.0,West,5.8,-,N/A,,Overcast,260,2013-10-02 10:53:00
7:04 AM,66.2,66.2,100,30.09,1.5,West,4.6,-,N/A,,Overcast,260,2013-10-02 11:04:00
7:33 AM,66.2,66.2,100,30.09,2.0,Calm,Calm,-,N/A,,Overcast,0,2013-10-02 11:33:00
7:53 AM,68.0,66.0,93,30.08,2.5,NW,3.5,-,N/A,,Overcast,310,2013-10-02 11:53:00
8:12 AM,68.0,66.2,94,30.10,1.2,West,3.5,-,N/A,,Overcast,280,2013-10-02 12:12:00
8:53 AM,68.0,66.9,96,30.10,1.2,Calm,Calm,-,N/A,,Overcast,0,2013-10-02 12:53:00
9:11 AM,69.8,66.2,88,30.11,2.5,Calm,Calm,-,N/A,,Overcast,0,2013-10-02 13:11:00
9:19 AM,69.8,66.2,88,30.11,3.0,Calm,Calm,-,N/A,,Overcast,0,2013-10-02 13:19:00
9:27 AM,69.8,66.2,88,30.12,2.0,Calm,Calm,-,N/A,,Overcast,0,2013-10-02 13:27:00
9:48 AM,68.0,68.0,100,30.12,0.8,Calm,Calm,-,N/A,,Overcast,0,2013-10-02 13:48:00
9:53 AM,68.0,68.0,100,30.11,0.8,Calm,Calm,-,N/A,,Overcast,0,2013-10-02 13:53:00
10:04 AM,68.0,66.2,94,30.12,1.0,Calm,Calm,-,N/A,,Overcast,0,2013-10-02 14:04:00
10:23 AM,69.8,68.0,94,30.12,3.0,Calm,Calm,-,N/A,,Overcast,0,2013-10-02 14:23:00
10:43 AM,69.8,66.2,88,30.12,4.0,Calm,Calm,-,N/A,,Overcast,0,2013-10-02 14:43:00
10:53 AM,70.0,66.9,90,30.11,4.0,SSW,3.5,-,N/A,,Overcast,210,2013-10-02 14:53:00
11:53 AM,71.1,66.9,87,30.10,7.0,Calm,Calm,-,N/A,,Overcast,0,2013-10-02 15:53:00
12:53 PM,71.1,66.9,87,30.09,9.0,ESE,3.5,-,N/A,,Overcast,110,2013-10-02 16:53:00
1:48 PM,71.6,66.2,83,30.10,10.0,ESE,4.6,-,N/A,,Overcast,120,2013-10-02 17:48:00
1:53 PM,72.0,66.9,84,30.09,10.0,SE,3.5,-,N/A,,Overcast,130,2013-10-02 17:53:00
2:53 PM,73.0,68.0,84,30.07,10.0,South,3.5,-,N/A,,Overcast,170,2013-10-02 18:53:00
3:48 PM,73.4,66.2,78,30.07,10.0,Calm,Calm,-,N/A,,Overcast,0,2013-10-02 19:48:00
3:53 PM,73.9,68.0,82,30.05,10.0,SSE,3.5,-,N/A,,Overcast,160,2013-10-02 19:53:00
4:02 PM,73.4,68.0,83,30.07,10.0,SSE,4.6,-,N/A,,Overcast,150,2013-10-02 20:02:00
4:53 PM,73.9,66.9,79,30.04,10.0,East,3.5,-,N/A,,Mostly Cloudy,100,2013-10-02 20:53:00
5:16 PM,73.4,66.2,78,30.05,10.0,ESE,3.5,-,N/A,,Mostly Cloudy,120,2013-10-02 21:16:00
5:25 PM,73.4,68.0,83,30.05,10.0,SE,4.6,-,N/A,,Mostly Cloudy,140,2013-10-02 21:25:00
5:53 PM,73.9,68.0,82,30.04,10.0,Calm,Calm,-,N/A,,Overcast,0,2013-10-02 21:53:00
6:19 PM,73.4,68.0,83,30.07,10.0,SE,3.5,-,N/A,,Scattered Clouds,130,2013-10-02 22:19:00
6:53 PM,73.0,68.0,84,30.05,9.0,SE,3.5,-,N/A,,Partly Cloudy,140,2013-10-02 22:53:00
7:53 PM,68.0,66.0,93,30.04,7.0,Calm,Calm,-,N/A,,Clear,0,2013-10-02 23:53:00
8:53 PM,68.0,66.0,93,30.05,4.0,SSE,3.5,-,N/A,,Clear,150,2013-10-03 00:53:00
9:53 PM,69.1,66.9,93,30.05,6.0,South,4.6,-,N/A,,Clear,170,2013-10-03 01:53:00
10:26 PM,69.8,68.0,94,30.07,7.0,SSE,4.6,-,N/A,,Mostly Cloudy,160,2013-10-03 02:26:00
10:51 PM,69.8,68.0,94,30.06,6.0,South,4.6,-,N/A,,Partly Cloudy,170,2013-10-03 02:51:00
10:53 PM,70.0,68.0,93,30.05,6.0,South,4.6,-,N/A,,Partly Cloudy,170,2013-10-03 02:53:00
11:53 PM,69.1,66.0,90,30.04,10.0,Calm,Calm,-,0.00,,Partly Cloudy,0,2013-10-03 03:53:00